Weather History for Brownwood, TX

Change the Weather History Date:

Saturday, November 10, 2012

  Actual Average (KABI) Record (KABI)
Temperature  
Mean Temperature 71 °F 57 °F  
Max Temperature 80 °F 69 °F 85 °F (1962)
Min Temperature 62 °F 45 °F 18 °F (1950)
Degree Days  
Heating Degree Days 0 9  
Month to date heating degree days 74  
Since 1 July heating degree days 178  
Cooling Degree Days 6 1  
Month to date cooling degree days 12  
Year to date cooling degree days 2401  
Growing Degree Days 21 (Base 50)    
Moisture  
Dew Point 57 °F    
Average Humidity 62    
Maximum Humidity 88    
Minimum Humidity 37    
Precipitation  
Precipitation 0.00 in 0.05 in 0.68 in (1920)
Month to date precipitation 0.58  
Year to date precipitation 22.76  
Sea Level Pressure  
Sea Level Pressure 29.89 in    
Wind  
Wind Speed 17 mph (South)    
Max Wind Speed 30 mph    
Max Gust Speed 39 mph    
Visibility 10 miles    
Events      
T = Trace of Precipitation, MM = Missing Value Source: NWS Daily Summary

Daily Weather History Graph

Daily Weather History Graph

Search for Another Location

Airport:

Trip Planner

Search our weather history database for the weather conditions in past years. The results will help you decide how hot, cold, wet, or windy it might be!

Date:

Astronomy

Nov. 10, 2012 Rise Set
Actual Time 7:00 AM CST 5:39 PM CST
Civil Twilight 6:34 AM CST 6:04 PM CST
Nautical Twilight 6:05 AM CST 6:33 PM CST
Astronomical Twilight 5:36 AM CST 7:02 PM CST
Moon 3:18 AM CST (11/10) 3:16 PM CST (11/10)
Length of Visible Light 11h 30m
Length of Day
10h 38m
Waning Crescent, 14% of the Moon is Illuminated
Nov 10
Waning Crescent
Nov 13
New
Nov 20
First Quarter
Nov 28
Full
Dec 6
Last Quarter

Hourly Weather History & Observations

Time (CST) Temp. Heat Index Dew Point Humidity Pressure Visibility Wind Dir Wind Speed Gust Speed Precip Events Conditions
12:15 AM 66.2 °F - 55.4 °F 68% 29.98 in 10.0 mi SSE 13.8 mph 19.6 mph N/A   Clear
12:35 AM 66.2 °F - 55.4 °F 68% 29.97 in 10.0 mi SSE 12.7 mph - N/A   Clear
12:55 AM 66.2 °F - 57.2 °F 73% 29.96 in 10.0 mi SSE 16.1 mph 21.9 mph N/A   Clear
1:15 AM 66.2 °F - 57.2 °F 73% 29.96 in 10.0 mi SSE 15.0 mph - N/A   Clear
1:55 AM 64.4 °F - 57.2 °F 77% 29.95 in 10.0 mi SSE 12.7 mph 19.6 mph N/A   Scattered Clouds
2:15 AM 64.4 °F - 59.0 °F 83% 29.94 in 10.0 mi SSE 12.7 mph 16.1 mph N/A   Clear
2:35 AM 64.4 °F - 59.0 °F 83% 29.95 in 10.0 mi SSE 12.7 mph 17.3 mph N/A   Clear
2:55 AM 64.4 °F - 59.0 °F 83% 29.94 in 10.0 mi SSE 11.5 mph - N/A   Clear
3:15 AM 64.4 °F - 59.0 °F 83% 29.94 in 10.0 mi SSE 12.7 mph - N/A   Clear
4:15 AM 62.6 °F - 59.0 °F 88% 29.95 in 10.0 mi North - - N/A   Scattered Clouds
4:35 AM 62.6 °F - 59.0 °F 88% 29.95 in 10.0 mi North - - N/A   Scattered Clouds
4:55 AM 62.6 °F - 59.0 °F 88% 29.95 in 10.0 mi North - - N/A   Partly Cloudy
5:15 AM 62.6 °F - 57.2 °F 82% 29.94 in 10.0 mi North - - N/A   Mostly Cloudy
5:35 AM 62.6 °F - 57.2 °F 82% 29.94 in 10.0 mi SSE 11.5 mph - N/A   Mostly Cloudy
5:55 AM 62.6 °F - 57.2 °F 82% 29.94 in 10.0 mi South 10.4 mph - N/A   Overcast
6:15 AM 64.4 °F - 57.2 °F 77% 29.94 in 10.0 mi South 8.1 mph - N/A   Overcast
6:35 AM 64.4 °F - 57.2 °F 77% 29.94 in 10.0 mi SSE 11.5 mph 16.1 mph N/A   Overcast
6:55 AM 64.4 °F - 57.2 °F 77% 29.94 in 10.0 mi SSE 12.7 mph - N/A   Overcast
7:15 AM 64.4 °F - 57.2 °F 77% 29.95 in 8.0 mi South 11.5 mph - N/A   Overcast
7:55 AM 66.2 °F - 57.2 °F 73% 29.97 in 9.0 mi South 9.2 mph - N/A   Overcast
8:15 AM 66.2 °F - 59.0 °F 78% 29.96 in 10.0 mi South 15.0 mph - N/A   Overcast
8:35 AM 68.0 °F - 57.2 °F 68% 29.97 in 10.0 mi South 17.3 mph 26.5 mph N/A   Overcast
8:55 AM 68.0 °F - 59.0 °F 73% 29.97 in 10.0 mi South 18.4 mph 24.2 mph N/A   Overcast
9:15 AM 71.6 °F - 59.0 °F 64% 29.97 in 10.0 mi South 21.9 mph 28.8 mph N/A   Overcast
9:35 AM 71.6 °F - 59.0 °F 64% 29.97 in 10.0 mi South 20.7 mph 29.9 mph N/A   Overcast
9:55 AM 71.6 °F - 59.0 °F 64% 29.97 in 10.0 mi South 24.2 mph 33.4 mph N/A   Overcast
10:15 AM 73.4 °F - 59.0 °F 61% 29.96 in 10.0 mi South 29.9 mph 34.5 mph N/A   Mostly Cloudy
10:35 AM 73.4 °F - 57.2 °F 57% 29.96 in 10.0 mi South 26.5 mph 33.4 mph N/A   Mostly Cloudy
10:55 AM 75.2 °F - 57.2 °F 53% 29.95 in 10.0 mi South 26.5 mph 32.2 mph N/A   Mostly Cloudy
11:15 AM 75.2 °F - 57.2 °F 53% 29.94 in 10.0 mi South 21.9 mph 28.8 mph N/A   Scattered Clouds
11:35 AM 77.0 °F - 57.2 °F 50% 29.93 in 10.0 mi South 24.2 mph 31.1 mph N/A   Scattered Clouds
11:55 AM 77.0 °F - 57.2 °F 50% 29.92 in 10.0 mi South 25.3 mph 33.4 mph N/A   Partly Cloudy
12:15 PM 77.0 °F - 57.2 °F 50% 29.90 in 10.0 mi South 24.2 mph 31.1 mph N/A   Clear
12:35 PM 77.0 °F - 55.4 °F 47% 29.89 in 10.0 mi South 20.7 mph 31.1 mph N/A   Clear
12:55 PM 77.0 °F - 55.4 °F 47% 29.88 in 10.0 mi South 25.3 mph 34.5 mph N/A   Clear
1:15 PM 78.8 °F - 55.4 °F 44% 29.87 in 10.0 mi South 20.7 mph 28.8 mph N/A   Clear
1:35 PM 78.8 °F - 55.4 °F 44% 29.86 in 10.0 mi South 19.6 mph 28.8 mph N/A   Clear
1:55 PM 80.6 °F 80.3 °F 53.6 °F 39% 29.84 in 10.0 mi South 18.4 mph 29.9 mph N/A   Clear
2:15 PM 80.6 °F 80.3 °F 53.6 °F 39% 29.84 in 10.0 mi South 19.6 mph 32.2 mph N/A   Clear
2:35 PM 80.6 °F 80.3 °F 53.6 °F 39% 29.81 in 10.0 mi South 25.3 mph 39.1 mph N/A   Clear
2:55 PM 80.6 °F 80.3 °F 53.6 °F 39% 29.81 in 10.0 mi South 21.9 mph 33.4 mph N/A   Clear
3:15 PM 80.6 °F 80.3 °F 53.6 °F 39% 29.80 in 10.0 mi South 25.3 mph 39.1 mph N/A   Clear
3:35 PM 80.6 °F - 51.8 °F 37% 29.80 in 10.0 mi South 23.0 mph 32.2 mph N/A   Clear
3:55 PM 78.8 °F - 53.6 °F 42% 29.80 in 10.0 mi South 21.9 mph 32.2 mph N/A   Clear
4:15 PM 78.8 °F - 53.6 °F 42% 29.80 in 10.0 mi SSE 23.0 mph 29.9 mph N/A   Clear
4:35 PM 77.0 °F - 53.6 °F 44% 29.80 in 10.0 mi SSE 24.2 mph 32.2 mph N/A   Clear
4:55 PM 77.0 °F - 53.6 °F 44% 29.81 in 10.0 mi SSE 23.0 mph 35.7 mph N/A   Clear
5:15 PM 75.2 °F - 53.6 °F 47% 29.80 in 10.0 mi SSE 18.4 mph 28.8 mph N/A   Clear
5:55 PM 75.2 °F - 55.4 °F 50% 29.80 in 10.0 mi SSE 19.6 mph 31.1 mph N/A   Clear
6:15 PM 75.2 °F - 55.4 °F 50% 29.80 in 10.0 mi SSE 18.4 mph 26.5 mph N/A   Clear
6:35 PM 73.4 °F - 53.6 °F 50% 29.81 in 10.0 mi SSE 19.6 mph 27.6 mph N/A   Clear
6:55 PM 73.4 °F - 53.6 °F 50% 29.81 in 10.0 mi SSE 20.7 mph 28.8 mph N/A   Clear
7:15 PM 73.4 °F - 53.6 °F 50% 29.82 in 10.0 mi SSE 19.6 mph 27.6 mph N/A   Clear
7:35 PM 73.4 °F - 53.6 °F 50% 29.82 in 10.0 mi SSE 16.1 mph 27.6 mph N/A   Partly Cloudy
7:55 PM 73.4 °F - 53.6 °F 50% 29.82 in 10.0 mi South 17.3 mph 23.0 mph N/A   Mostly Cloudy
8:15 PM 71.6 °F - 53.6 °F 53% 29.83 in 10.0 mi South 15.0 mph 23.0 mph N/A   Overcast
8:35 PM 71.6 °F - 55.4 °F 57% 29.84 in 10.0 mi South 15.0 mph 26.5 mph N/A   Overcast
8:55 PM 71.6 °F - 55.4 °F 57% 29.85 in 10.0 mi South 16.1 mph 24.2 mph N/A   Overcast
9:15 PM 71.6 °F - 57.2 °F 60% 29.85 in 10.0 mi South 16.1 mph 25.3 mph N/A   Overcast
9:35 PM 71.6 °F - 59.0 °F 64% 29.84 in 10.0 mi South 19.6 mph 28.8 mph N/A   Overcast
9:55 PM 71.6 °F - 59.0 °F 64% 29.85 in 10.0 mi SSE 16.1 mph 21.9 mph N/A   Overcast
10:15 PM 69.8 °F - 59.0 °F 68% 29.84 in 10.0 mi SSE 17.3 mph 23.0 mph N/A   Overcast
10:35 PM 69.8 °F - 59.0 °F 68% 29.83 in 10.0 mi SSE 17.3 mph 28.8 mph N/A   Overcast
10:55 PM 69.8 °F - 59.0 °F 68% 29.83 in 10.0 mi SSE 17.3 mph 25.3 mph N/A   Overcast
11:15 PM 69.8 °F - 59.0 °F 68% 29.83 in 10.0 mi SSE 17.3 mph 27.6 mph N/A   Overcast
11:35 PM 69.8 °F - 60.8 °F 73% 29.82 in 10.0 mi South 16.1 mph 24.2 mph N/A   Overcast
11:55 PM 69.8 °F - 60.8 °F 73% 29.81 in 10.0 mi SSE 20.7 mph 29.9 mph N/A   Overcast